DW9097 Weather Reports


time (UTC)temp
C
wind
direction
speed
KPH
gust
KPH
rain 1hr
cm
rain 24hr
cm
rain mn
cm
humidity
%
barometer
mb
20260508013251 12 255 0.0 0.0 0.00 0.00 0.00 91 1008.3
20260508013228 12 257 0.0 0.0 0.00 0.00 0.00 91 1008.3
20260508013033 12 257 0.0 0.0 0.00 0.00 0.00 91 928.9
20260508012734 12 257 0.0 0.0 0.00 0.00 0.00 91 1008.3
20260508012647 12 257 0.0 0.0 0.00 0.00 0.00 91 1008.3
20260508012531 12 257 0.0 0.0 0.00 0.00 0.00 90 928.9
20260508012506 12 257 0.0 0.0 0.00 0.00 0.00 90 1008.5
20260508012408 12 257 0.0 0.0 0.00 0.00 0.00 90 1008.5
20260508012133 12 257 0.0 0.0 0.00 0.00 0.00 90 929.1
20260508011750 12 257 0.0 0.0 0.00 0.00 0.00 90 929.2
20260508011733 12 258 0.0 0.0 0.00 0.00 0.00 90 1008.5
20260508011645 12 257 0.0 0.0 0.00 0.00 0.00 90 1008.5
20260508011634 12 257 0.0 0.0 0.00 0.00 0.00 90 929.2
20260508011254 12 257 0.0 0.0 0.00 0.00 0.00 90 929.3
20260508011233 12 257 0.0 0.0 0.00 0.00 0.00 91 1008.6
20260508011147 12 257 0.0 0.0 0.00 0.00 0.00 91 1008.6
20260508011027 12 257 0.0 0.0 0.00 0.00 0.00 90 929.3
20260508010733 12 255 0.0 0.0 0.00 0.00 0.00 90 1008.8
20260508010649 12 257 0.0 0.0 0.00 0.00 0.00 90 1008.8
20260508010529 12 257 0.0 0.0 0.00 0.00 0.00 90 929.4
20260508010231 12 257 0.0 0.0 0.00 0.00 0.00 91 1008.9
20260508010146 12 257 0.0 0.0 0.00 0.00 0.00 91 1008.9
20260508010026 12 257 0.0 0.0 0.00 0.00 0.00 91 929.5
20260508005757 12 257 0.0 0.0 0.00 0.00 0.00 91 929.6
20260508005702 12 257 0.0 0.0 0.00 0.00 0.00 91 1009.1
20260508005644 12 257 0.0 0.0 0.00 0.00 0.00 91 1009.1
20260508005634 12 257 0.0 0.0 0.00 0.00 0.00 91 929.6
20260508005203 12 257 0.0 0.0 0.00 0.00 0.00 91 1009.3
20260508005144 12 257 0.0 0.0 0.00 0.00 0.00 91 1009.3
20260508005027 12 257 0.0 0.0 0.00 0.00 0.00 90 929.8
20260508005020 12 257 0.0 0.0 0.00 0.00 0.00 90 1009.3
20260508004902 12 258 0.0 0.0 0.00 0.00 0.00 90 1009.3
20260508004538 12 257 0.0 0.0 0.00 0.00 0.00 90 929.7
20260508004459 12 258 0.0 1.6 0.00 0.00 0.00 91 1009.3
20260508004358 12 257 0.0 1.6 0.00 0.00 0.00 91 1009.3
20260508004026 12 257 0.0 3.2 0.00 0.00 0.00 91 929.7
20260508003702 12 255 0.0 3.2 0.00 0.00 0.00 91 1009.3
20260508003650 12 257 0.0 3.2 0.00 0.00 0.00 91 1009.3
20260508003528 12 257 0.0 3.2 0.00 0.00 0.00 91 929.9
20260508003204 12 257 0.0 3.2 0.00 0.00 0.00 91 1009.5
20260508003145 12 257 0.0 3.2 0.00 0.00 0.00 91 1009.5
20260508003124 13 255 0.0 3.2 0.00 0.00 0.00 91 930.0
20260508002705 13 257 0.0 3.2 0.00 0.00 0.00 91 1009.5
20260508002700 13 257 0.0 0.0 0.00 0.00 0.00 91 1009.3
20260508002649 13 257 0.0 3.2 0.00 0.00 0.00 91 1009.5
20260508002643 13 257 0.0 0.0 0.00 0.00 0.00 91 1009.5
20260508002637 13 257 0.0 0.0 0.00 0.00 0.00 91 1009.5
20260508002526 13 257 0.0 0.0 0.00 0.00 0.00 91 929.9
20260508002231 13 257 0.0 0.0 0.00 0.00 0.00 91 1009.3
20260508002027 13 257 0.0 0.0 0.00 0.00 0.00 91 929.9
20260508001527 13 257 0.0 0.0 0.00 0.00 0.00 91 930.0
20260508001202 13 257 0.0 0.0 0.00 0.00 0.00 91 1009.3
20260508001144 13 257 0.0 0.0 0.00 0.00 0.00 91 1009.3
20260508001025 13 257 0.0 0.0 0.00 0.00 0.00 91 929.9
20260508000702 13 255 0.0 0.0 0.00 0.00 0.00 91 1009.6
20260508000643 13 258 0.0 0.0 0.00 0.00 0.00 91 1009.6
20260508000537 13 255 0.0 1.6 0.00 0.00 0.00 90 930.2
20260508000204 13 257 0.0 0.0 0.00 0.00 0.00 90 1009.9
20260508000144 13 257 0.0 0.0 0.00 0.00 0.00 90 1009.9
20260508000024 13 257 0.0 1.6 0.00 0.00 0.00 90 930.4
20260508000008 13 255 0.0 3.2 0.00 0.00 0.00 90 1009.9
20260507235902 13 255 0.0 3.2 0.00 0.00 0.00 90 1009.9
20260507235854 13 257 0.0 1.6 0.00 0.00 0.00 90 930.4
20260507235804 13 257 0.0 1.6 0.00 0.00 0.00 90 930.4
20260507235202 13 257 0.0 3.2 0.00 0.00 0.00 90 1009.9
20260507235145 13 257 0.0 3.2 0.00 0.00 0.00 90 1009.9
20260507235025 13 257 0.0 1.6 0.00 0.00 0.00 90 930.4
20260507234644 13 257 0.0 0.0 0.00 0.00 0.00 90 1010.1
20260507234525 13 257 0.0 0.0 0.00 0.00 0.00 90 930.5
20260507234508 13 257 0.0 0.0 0.00 0.00 0.00 91 1010.3
20260507234253 13 257 0.0 0.0 0.00 0.00 0.00 91 930.8
20260507234142 13 257 0.0 0.0 0.00 0.00 0.00 91 1010.3
20260507234025 13 257 0.0 0.0 0.00 0.00 0.00 91 930.8
20260507233643 13 257 0.0 0.0 0.00 0.00 0.00 91 1010.5
20260507233525 13 257 0.0 0.0 0.00 0.00 0.00 91 930.7
20260507233243 13 257 0.0 1.6 0.00 0.00 0.00 91 930.7
20260507233144 13 257 0.0 1.6 0.00 0.00 0.00 91 1010.4
20260507233129 13 257 0.0 1.6 0.00 0.00 0.00 91 930.7
20260507232653 13 255 0.0 1.6 0.00 0.00 0.00 91 1010.3
20260507232643 13 257 0.0 1.6 0.00 0.00 0.00 91 1010.3
20260507232527 13 257 0.0 1.6 0.00 0.00 0.00 91 930.7
20260507232248 13 257 0.0 3.2 0.00 0.00 0.00 91 930.7
20260507232144 13 257 0.0 3.2 0.00 0.00 0.00 91 1010.3
20260507232024 13 257 0.0 3.2 0.00 0.00 0.00 91 930.7
20260507232015 13 257 0.0 3.2 0.00 0.00 0.00 91 1010.4
20260507231853 13 257 0.0 3.2 0.00 0.00 0.00 91 1010.4
20260507231525 13 257 0.0 3.2 0.00 0.00 0.00 91 930.6
20260507231240 13 257 0.0 0.0 0.00 0.00 0.00 91 930.7
20260507231143 13 257 0.0 0.0 0.00 0.00 0.00 91 1010.4
20260507231129 13 257 0.0 0.0 0.00 0.00 0.00 91 930.7
20260507231017 13 257 0.0 3.2 0.00 0.00 0.00 91 1010.9
20260507231009 13 257 0.0 3.2 0.00 0.00 0.00 91 1011.1
20260507230840 13 257 0.0 1.6 0.00 0.00 0.00 91 1010.5
20260507230526 13 257 0.0 0.0 0.00 0.00 0.00 91 931.0
20260507230444 13 257 0.0 3.2 0.00 0.00 0.00 91 1010.9
20260507230022 13 257 0.0 3.2 0.00 0.00 0.00 91 931.5
20260507225747 13 257 0.0 3.2 0.00 0.00 0.00 91 931.5
20260507225629 13 257 0.0 3.2 0.00 0.00 0.00 91 931.5
20260507225252 13 257 0.0 6.4 0.00 0.00 0.00 91 931.4
20260507225142 13 257 0.0 6.4 0.00 0.00 0.00 91 1011.0
20260507225023 13 257 0.0 6.4 0.00 0.00 0.00 91 931.4
20260507224742 13 257 0.0 6.4 0.00 0.00 0.00 91 931.7
20260507224641 13 257 0.0 6.4 0.00 0.00 0.00 91 1011.2
20260507224631 13 257 0.0 6.4 0.00 0.00 0.00 91 931.7
20260507224146 13 264 1.6 6.4 0.00 0.00 0.00 91 1011.6
20260507224142 13 264 1.6 6.4 0.00 0.00 0.00 91 1011.7
20260507224023 13 262 4.8 6.4 0.00 0.00 0.00 91 932.0
20260507223900 13 333 0.0 0.0 0.00 0.00 0.00 91 931.7
20260507223800 13 333 0.0 0.0 0.00 0.00 0.00 91 931.7
20260507223642 13 217 0.0 0.0 0.00 0.00 0.00 91 1011.4
20260507223143 13 333 0.0 0.0 0.00 0.00 0.00 91 1011.0
20260507223024 13 333 0.0 0.0 0.00 0.00 0.00 91 931.3
20260507223001 13 333 0.0 0.0 0.00 0.00 0.00 91 1010.7
20260507222850 13 333 0.0 0.0 0.00 0.00 0.00 91 1010.7
20260507222525 13 333 0.0 0.0 0.00 0.00 0.00 92 930.8
20260507222142 13 333 0.0 0.0 0.00 0.00 0.00 92 1010.5
20260507222024 13 333 0.0 0.0 0.00 0.00 0.00 92 930.7
20260507221745 13 333 0.0 0.0 0.00 0.00 0.00 92 930.9
20260507221641 13 333 0.0 0.0 0.00 0.00 0.00 92 1010.5
20260507221631 13 333 0.0 0.0 0.00 0.00 0.00 92 930.9
20260507221508 13 331 0.0 0.0 0.00 0.00 0.00 92 1010.6
20260507221351 13 331 0.0 0.0 0.00 0.00 0.00 92 1010.6
20260507221022 13 333 0.0 0.0 0.00 0.00 0.00 92 930.7
20260507220642 13 333 0.0 0.0 0.00 0.00 0.00 92 1010.1
20260507220631 13 331 0.0 0.0 0.00 0.00 0.00 92 1010.1
20260507220523 13 333 0.0 0.0 0.00 0.00 0.00 92 930.5
20260507220252 13 333 0.0 0.0 0.00 0.00 0.00 92 930.4
20260507220133 13 333 0.0 0.0 0.00 0.00 0.00 92 1010.1
20260507220022 13 333 0.0 0.0 0.00 0.00 0.00 92 930.4
20260507220013 13 333 0.0 0.0 0.00 0.00 0.00 92 930.5
20260507215632 13 333 0.0 0.0 0.00 0.00 0.00 92 1010.1
20260507215523 13 333 0.0 0.0 0.00 0.00 0.00 92 930.5
20260507215140 13 333 0.0 0.0 0.00 0.00 0.00 92 1010.1
20260507215133 13 333 0.0 0.0 0.00 0.00 0.00 92 1010.0
20260507215022 13 333 0.0 0.0 0.00 0.00 0.00 92 930.4
20260507215001 13 333 0.0 0.0 0.00 0.00 0.00 92 1009.9
20260507214843 13 333 0.0 0.0 0.00 0.00 0.00 92 1009.9
20260507214524 13 333 0.0 0.0 0.00 0.00 0.00 92 930.3
20260507214342 13 333 0.0 0.0 0.00 0.00 0.00 92 1010.1
20260507214245 13 333 0.0 0.0 0.00 0.00 0.00 92 1010.1
20260507214021 13 333 0.0 0.0 0.00 0.00 0.00 92 930.5
20260507213632 13 333 0.0 0.0 0.00 0.00 0.00 92 1010.1
20260507213524 13 333 0.0 0.0 0.00 0.00 0.00 92 930.4
20260507213141 13 333 0.0 0.0 0.00 0.00 0.00 92 1009.9
20260507213132 13 333 0.0 0.0 0.00 0.00 0.00 92 1009.8
20260507213021 13 333 0.0 0.0 0.00 0.00 0.00 92 930.3
20260507212854 13 333 0.0 0.0 0.00 0.00 0.00 92 930.5
20260507212750 13 333 0.0 0.0 0.00 0.00 0.00 92 930.5
20260507212639 13 333 0.0 0.0 0.00 0.00 0.00 92 1010.0
20260507212632 13 331 0.0 0.0 0.00 0.00 0.00 92 1010.0
20260507212445 13 333 0.0 0.0 0.00 0.00 0.00 92 1010.1
20260507212345 13 333 0.0 0.0 0.00 0.00 0.00 92 1010.1
20260507212022 13 333 0.0 0.0 0.00 0.00 0.00 92 930.5
20260507211631 13 333 0.0 0.0 0.00 0.00 0.00 92 1010.1
20260507211523 13 333 0.0 0.0 0.00 0.00 0.00 92 930.5
20260507211241 13 333 0.0 0.0 0.00 0.00 0.00 92 930.1
20260507211139 13 333 0.0 0.0 0.00 0.00 0.00 92 1009.7
20260507211133 13 333 0.0 0.0 0.00 0.00 0.00 92 1009.8
20260507211128 13 333 0.0 0.0 0.00 0.00 0.00 92 930.1
20260507210922 13 333 0.0 0.0 0.00 0.00 0.00 92 1010.0
20260507210749 13 333 0.0 0.0 0.00 0.00 0.00 92 1009.8
20260507210743 13 333 0.0 0.0 0.00 0.00 0.00 92 1009.9
20260507210523 13 333 0.0 0.0 0.00 0.00 0.00 92 930.3
20260507210132 13 333 0.0 0.0 0.00 0.00 0.00 92 1009.9
20260507210022 13 333 0.0 0.0 0.00 0.00 0.00 92 930.4
20260507205743 13 333 0.0 0.0 0.00 0.00 0.00 92 929.9
20260507205631 13 333 0.0 0.0 0.00 0.00 0.00 92 1009.4
20260507205629 13 333 0.0 0.0 0.00 0.00 0.00 92 929.9
20260507205239 13 333 0.0 0.0 0.00 0.00 0.00 92 930.0
20260507205141 13 333 0.0 0.0 0.00 0.00 0.00 92 1009.4
20260507205131 13 333 0.0 0.0 0.00 0.00 0.00 92 1009.5
20260507205129 13 333 0.0 0.0 0.00 0.00 0.00 92 930.0
20260507205019 13 333 0.0 0.0 0.00 0.00 0.00 91 1009.9
20260507204846 13 333 0.0 0.0 0.00 0.00 0.00 91 1009.8
20260507204523 13 333 0.0 0.0 0.00 0.00 0.00 92 930.4
20260507204459 13 333 0.0 0.0 0.00 0.00 0.00 91 1010.1
20260507204342 13 333 0.0 0.0 0.00 0.00 0.00 91 1010.0
20260507204116 13 333 0.0 0.0 0.00 0.00 0.00 91 930.8
20260507204020 13 331 0.0 0.0 0.00 0.00 0.00 91 930.5
20260507203755 13 333 0.0 0.0 0.00 0.00 0.00 91 930.8
20260507203633 13 333 0.0 0.0 0.00 0.00 0.00 91 1010.4
20260507203132 13 333 0.0 0.0 0.00 0.00 0.00 91 1010.6
20260507203020 13 333 0.0 0.0 0.00 0.00 0.00 91 931.0
20260507202954 13 333 0.0 0.0 0.00 0.00 0.00 91 1010.7
20260507202843 13 333 0.0 0.0 0.00 0.00 0.00 91 1010.7
20260507202749 13 333 0.0 0.0 0.00 0.00 0.00 91 930.9
20260507202628 13 333 0.0 0.0 0.00 0.00 0.00 91 930.9
20260507202246 13 333 0.0 0.0 0.00 0.00 0.00 91 930.8
20260507202140 13 333 0.0 0.0 0.00 0.00 0.00 91 1010.4
20260507202132 13 333 0.0 0.0 0.00 0.00 0.00 91 1010.5
20260507202021 13 333 0.0 0.0 0.00 0.00 0.00 91 930.8
20260507201750 13 333 0.0 0.0 0.00 0.00 0.00 91 930.7
20260507201633 13 333 0.0 0.0 0.00 0.00 0.00 91 1010.5
20260507201525 13 333 0.0 0.0 0.00 0.00 0.00 91 930.7
20260507201509 13 333 0.0 0.0 0.00 0.00 0.00 91 1010.4
20260507201342 13 333 0.0 0.0 0.00 0.00 0.00 91 1010.4
20260507201023 13 316 0.0 0.0 0.00 0.00 0.00 91 930.7
20260507200631 13 316 0.0 0.0 0.00 0.00 0.00 91 1009.9
20260507200626 13 316 0.0 0.0 0.00 0.00 0.00 91 930.3
20260507200510 13 17 0.0 0.0 0.00 0.00 0.00 91 1009.6
20260507200240 13 11 0.0 0.0 0.00 0.00 0.00 91 930.0
20260507200133 13 17 0.0 0.0 0.00 0.00 0.00 91 1009.6
20260507200127 13 11 0.0 0.0 0.00 0.00 0.00 91 930.0
20260507195945 13 0 0.0 0.0 0.00 0.00 0.00 91 1009.5
20260507195826 13 0 0.0 0.0 0.00 0.00 0.00 91 1009.5
20260507195522 13 11 0.0 0.0 0.00 0.00 0.00 91 929.9
20260507195237 13 0 0.0 0.0 0.00 0.00 0.00 91 930.0
20260507195125 13 0 0.0 0.0 0.00 0.00 0.00 91 930.0
20260507195108 13 0 0.0 0.0 0.00 0.00 0.00 91 1009.5
20260507194632 13 6 0.0 0.0 0.00 0.00 0.00 91 1009.8
20260507194606 13 4 0.0 0.0 0.00 0.00 0.00 91 1009.8
20260507194521 13 8 0.0 0.0 0.00 0.00 0.00 91 930.2
20260507194104 13 4 0.0 0.0 0.00 0.00 0.00 91 1009.8
20260507194020 13 4 0.0 0.0 0.00 0.00 0.00 91 930.2
20260507193928 13 4 0.0 0.0 0.00 0.00 0.00 91 1009.8
20260507193821 13 4 0.0 0.0 0.00 0.00 0.00 91 1009.8
20260507193522 13 4 0.0 0.0 0.00 0.00 0.00 91 930.2
20260507193107 13 0 0.0 0.0 0.00 0.00 0.00 91 1009.7
20260507193019 13 0 0.0 0.0 0.00 0.00 0.00 91 930.1
20260507192846 13 0 0.0 0.0 0.00 0.00 0.00 91 930.1
20260507192759 13 0 0.0 0.0 0.00 0.00 0.00 91 930.1
20260507192603 13 0 0.0 0.0 0.00 0.00 0.00 91 1009.7
20260507192424 13 16 0.0 3.2 0.00 0.00 0.00 91 1009.6
20260507192317 13 16 0.0 1.6 0.00 0.00 0.00 91 1009.6
20260507192020 13 13 0.0 6.4 0.00 0.00 0.00 91 930.2
20260507191603 13 14 0.0 9.7 0.00 0.00 0.00 91 1009.6
20260507191521 13 21 0.0 6.4 0.00 0.00 0.00 91 930.1
20260507191309 13 350 0.0 3.2 0.00 0.00 0.00 91 930.1
20260507191107 13 348 3.2 9.7 0.00 0.00 0.00 91 1009.5
20260507191103 13 347 3.2 9.7 0.00 0.00 0.00 91 1009.5
20260507191032 13 350 0.0 3.2 0.00 0.00 0.00 91 930.1
20260507190604 13 358 0.0 3.2 0.00 0.00 0.00 91 1009.5
20260507190519 13 0 0.0 3.2 0.00 0.00 0.00 91 930.0
20260507190446 13 355 1.6 3.2 0.00 0.00 0.00 91 1009.5
20260507190314 13 355 1.6 3.2 0.00 0.00 0.00 91 1009.5
20260507190018 13 354 1.6 3.2 0.00 0.00 0.00 91 930.1
20260507185607 13 358 0.0 0.0 0.00 0.00 0.00 91 1009.7
20260507185602 13 1 0.0 0.0 0.00 0.00 0.00 91 1009.7
20260507185521 13 0 0.0 0.0 0.00 0.00 0.00 91 930.1
20260507185436 13 0 0.0 0.0 0.00 0.00 0.00 91 1009.6
20260507185314 13 0 0.0 0.0 0.00 0.00 0.00 91 1009.6
20260507185018 13 13 0.0 0.0 0.00 0.00 0.00 91 929.9
20260507184603 13 3 0.0 0.0 0.00 0.00 0.00 90 1009.6
20260507184521 13 0 0.0 0.0 0.00 0.00 0.00 90 930.0
20260507184103 13 0 0.0 0.0 0.00 0.00 0.00 90 1009.6
20260507184018 13 0 0.0 0.0 0.00 0.00 0.00 90 930.0
20260507183603 13 0 0.0 0.0 0.00 0.00 0.00 90 1009.4
20260507183520 13 0 0.0 0.0 0.00 0.00 0.00 90 929.8
20260507183103 13 0 0.0 3.2 0.00 0.00 0.00 90 1009.3
20260507183019 13 0 0.0 3.2 0.00 0.00 0.00 90 929.7
20260507182603 13 348 0.0 6.4 0.00 0.00 0.00 90 1009.1
20260507182519 13 4 0.0 4.8 0.00 0.00 0.00 90 929.7
20260507182306 13 0 1.6 4.8 0.00 0.00 0.00 90 929.6
20260507182102 13 0 1.6 6.4 0.00 0.00 0.00 90 1009.1
20260507182032 13 0 1.6 4.8 0.00 0.00 0.00 90 929.6
20260507181626 13 13 0.0 4.8 0.00 0.00 0.00 90 929.7
20260507181603 13 354 0.0 4.8 0.00 0.00 0.00 90 1009.2
20260507181421 13 353 0.0 9.7 0.00 0.00 0.00 90 1009.3
20260507181057 13 353 0.0 9.7 0.00 0.00 0.00 90 1009.3
20260507181018 13 0 0.0 9.7 0.00 0.00 0.00 90 929.7
20260507180612 13 4 3.2 9.7 0.00 0.00 0.00 89 1009.2
20260507180606 13 4 3.2 9.7 0.00 0.00 0.00 89 1009.2
20260507180520 13 1 4.8 9.7 0.00 0.00 0.00 89 929.7
20260507180124 13 17 3.2 6.4 0.00 0.00 0.00 89 929.7
20260507180103 13 51 3.2 8.0 0.00 0.00 0.00 89 1009.3
20260507180058 13 49 4.8 8.0 0.00 0.00 0.00 89 1009.3
20260507175608 13 20 3.2 8.0 0.00 0.00 0.00 89 1009.2
20260507175600 13 20 3.2 8.0 0.00 0.00 0.00 89 1009.2
20260507175518 13 20 4.8 8.0 0.00 0.00 0.00 89 929.6
20260507175420 13 281 4.8 8.0 0.00 0.00 0.00 89 1009.0
20260507175307 13 281 4.8 8.0 0.00 0.00 0.00 89 1009.0
20260507175018 13 281 4.8 8.0 0.00 0.00 0.00 88 929.5
20260507174603 13 13 3.2 6.4 0.00 0.00 0.00 88 1008.9
20260507174555 13 23 3.2 6.4 0.00 0.00 0.00 88 1008.9
20260507174519 13 0 4.8 6.4 0.00 0.00 0.00 88 929.4
20260507174240 13 48 1.6 4.8 0.00 0.00 0.00 87 929.1
20260507174122 13 48 1.6 4.8 0.00 0.00 0.00 87 929.1
20260507174102 13 0 3.2 6.4 0.00 0.00 0.00 88 1008.5
20260507174053 13 347 1.6 6.4 0.00 0.00 0.00 88 1008.5
20260507173738 13 0 0.0 0.0 0.00 0.00 0.00 87 929.2
20260507173629 13 0 0.0 0.0 0.00 0.00 0.00 87 929.2
20260507173603 13 18 0.0 0.0 0.00 0.00 0.00 87 1008.6
20260507173552 13 0 0.0 0.0 0.00 0.00 0.00 87 1008.6
20260507173111 13 0 0.0 4.8 0.00 0.00 0.00 87 1008.6
20260507173038 13 37 0.0 4.8 0.00 0.00 0.00 87 1008.6
20260507173015 13 0 0.0 4.8 0.00 0.00 0.00 87 929.1
20260507172755 13 0 0.0 8.0 0.00 0.00 0.00 87 929.2
20260507172635 13 0 0.0 8.0 0.00 0.00 0.00 87 929.2
20260507172608 13 0 0.0 8.0 0.00 0.00 0.00 87 1008.6
20260507172538 13 31 1.6 8.0 0.00 0.00 0.00 87 1008.6
20260507172409 13 24 4.8 8.0 0.00 0.00 0.00 87 1008.9
20260507172256 13 7 4.8 8.0 0.00 0.00 0.00 87 1008.9
20260507172251 13 20 4.8 8.0 0.00 0.00 0.00 87 929.4
20260507172017 13 20 4.8 8.0 0.00 0.00 0.00 87 929.4
20260507171753 13 0 3.2 6.4 0.00 0.00 0.00 87 929.5
20260507171604 13 0 3.2 8.0 0.00 0.00 0.00 87 1009.1
20260507171539 13 0 3.2 8.0 0.00 0.00 0.00 87 1009.1
20260507171522 13 0 3.2 6.4 0.00 0.00 0.00 87 929.5
20260507171103 13 0 3.2 8.0 0.00 0.00 0.00 87 1009.3
20260507171034 13 3 3.2 6.4 0.00 0.00 0.00 87 1009.3
20260507171020 13 16 3.2 6.4 0.00 0.00 0.00 87 929.8
20260507170602 13 0 3.2 9.7 0.00 0.00 0.00 87 1009.5
20260507170537 13 16 3.2 9.7 0.00 0.00 0.00 87 1009.5
20260507170530 13 0 3.2 9.7 0.00 0.00 0.00 87 929.6
20260507170517 13 28 3.2 9.7 0.00 0.00 0.00 87 929.9
20260507170104 13 0 3.2 9.7 0.00 0.00 0.00 87 1009.2
20260507170036 13 1 3.2 9.7 0.00 0.00 0.00 87 1009.2
20260507170020 13 0 3.2 9.7 0.00 0.00 0.00 87 929.6
20260507165925 14 37 3.2 8.0 0.00 0.00 0.00 87 1009.6
20260507165534 14 18 3.2 6.4 0.00 0.00 0.00 87 1009.6
20260507165516 14 28 3.2 8.0 0.00 0.00 0.00 87 930.1
20260507165104 14 8 1.6 6.4 0.00 0.00 0.00 87 1009.6
20260507165036 14 8 1.6 6.4 0.00 0.00 0.00 87 1009.6
20260507165017 14 8 3.2 4.8 0.00 0.00 0.00 87 930.0
20260507164606 14 0 3.2 6.4 0.00 0.00 0.00 87 1009.7
20260507164533 14 1 1.6 6.4 0.00 0.00 0.00 87 1009.6
20260507164517 14 0 1.6 4.8 0.00 0.00 0.00 87 930.1
20260507164401 14 326 3.2 9.7 0.00 0.00 0.00 88 1009.5
20260507164252 14 326 3.2 9.7 0.00 0.00 0.00 88 1009.6
20260507164016 14 324 3.2 9.7 0.00 0.00 0.00 88 930.1
20260507163802 13 3 4.8 9.7 0.00 0.00 0.00 88 1009.3
20260507163754 13 0 4.8 9.7 0.00 0.00 0.00 88 1009.3
20260507163653 13 323 3.2 9.7 0.00 0.00 0.00 88 1009.5
20260507163643 13 321 3.2 9.7 0.00 0.00 0.00 88 1009.5
20260507163611 13 321 3.2 9.7 0.00 0.00 0.00 88 929.9
20260507163016 13 32 4.8 9.7 0.00 0.00 0.00 88 929.8
20260507162552 13 0 4.8 9.7 0.00 0.00 0.00 88 1009.3
20260507162533 13 0 4.8 9.7 0.00 0.00 0.00 88 1009.4
20260507162517 13 14 3.2 6.4 0.00 0.00 0.00 88 929.7
20260507162033 13 0 3.2 9.7 0.00 0.00 0.00 88 1009.3
20260507162014 13 0 3.2 8.0 0.00 0.00 0.00 88 929.7
20260507161656 13 338 6.4 9.7 0.00 0.00 0.00 88 1009.1
20260507161646 13 340 6.4 9.7 0.00 0.00 0.00 88 1009.1
20260507161516 13 0 6.4 8.0 0.00 0.00 0.00 88 929.6
20260507161246 13 71 0.0 8.0 0.00 0.00 0.00 88 1009.1
20260507161015 13 24 1.6 8.0 0.00 0.00 0.00 88 929.5
20260507160544 13 0 3.2 11.3 0.00 0.00 0.00 88 1009.0
20260507160533 13 0 4.8 11.3 0.00 0.00 0.00 88 1008.9
20260507160517 13 344 4.8 11.3 0.00 0.00 0.00 88 929.3
20260507160246 13 355 4.8 11.3 0.00 0.00 0.00 88 929.6
20260507160046 13 341 4.8 11.3 0.00 0.00 0.00 88 1009.1
20260507160031 13 355 4.8 11.3 0.00 0.00 0.00 88 1009.1
20260507160017 13 355 4.8 11.3 0.00 0.00 0.00 88 929.6
20260507155735 13 3 4.8 8.0 0.00 0.00 0.00 88 929.7
20260507155638 13 353 3.2 8.0 0.00 0.00 0.00 88 929.7
20260507155624 13 3 4.8 8.0 0.00 0.00 0.00 88 929.7
20260507155545 13 341 4.8 9.7 0.00 0.00 0.00 88 1009.1
20260507155534 13 340 4.8 9.7 0.00 0.00 0.00 88 1009.2
20260507155043 13 357 3.2 9.7 0.00 0.00 0.00 88 1009.2
20260507155034 13 8 3.2 9.7 0.00 0.00 0.00 88 1009.3
20260507155015 13 353 3.2 8.0 0.00 0.00 0.00 88 929.7
20260507154547 13 27 4.8 9.7 0.00 0.00 0.00 88 1009.3
20260507154539 13 6 4.8 9.7 0.00 0.00 0.00 88 1009.3
20260507154514 13 25 4.8 8.0 0.00 0.00 0.00 88 929.8
20260507154041 13 353 4.8 9.7 0.00 0.00 0.00 88 1009.3
20260507154031 13 354 4.8 9.7 0.00 0.00 0.00 88 1009.3
20260507154013 13 355 4.8 8.0 0.00 0.00 0.00 88 929.8
20260507153911 13 343 4.8 9.7 0.00 0.00 0.00 88 1009.3
20260507153845 13 20 4.8 9.7 0.00 0.00 0.00 88 929.8
20260507153746 13 20 4.8 9.7 0.00 0.00 0.00 88 929.8
20260507153053 13 0 6.4 9.7 0.00 0.00 0.00 88 1009.4
20260507153031 13 0 4.8 9.7 0.00 0.00 0.00 88 1009.4
20260507153015 13 0 4.8 9.7 0.00 0.00 0.00 88 929.8
20260507152748 13 32 3.2 8.0 0.00 0.00 0.00 87 930.0
20260507152541 13 1 3.2 9.7 0.00 0.00 0.00 87 1009.6
20260507152532 13 0 3.2 9.7 0.00 0.00 0.00 87 1009.5
20260507152517 13 32 3.2 8.0 0.00 0.00 0.00 87 930.0
20260507152105 13 0 3.2 14.5 0.00 0.00 0.00 87 1009.5
20260507152042 13 354 4.8 8.0 0.00 0.00 0.00 87 1009.5
20260507152014 13 336 4.8 8.0 0.00 0.00 0.00 87 929.9
20260507151647 13 0 3.2 14.5 0.00 0.00 0.00 87 1009.4
20260507151518 13 0 3.2 9.7 0.00 0.00 0.00 87 929.8
20260507151013 13 0 6.4 14.5 0.00 0.00 0.00 87 929.9
20260507150844 13 20 4.8 9.7 0.00 0.00 0.00 87 1009.5
20260507150749 13 351 4.8 14.5 0.00 0.00 0.00 87 929.9
20260507150622 13 351 4.8 14.5 0.00 0.00 0.00 87 929.9
20260507150532 13 354 4.8 9.7 0.00 0.00 0.00 87 1009.5
20260507150032 13 0 4.8 9.7 0.00 0.00 0.00 88 1009.5
20260507150015 13 355 6.4 9.7 0.00 0.00 0.00 87 930.0
20260507145748 13 7 4.8 11.3 0.00 0.00 0.00 88 929.7
20260507145621 13 7 4.8 11.3 0.00 0.00 0.00 88 929.7
20260507145538 13 353 4.8 11.3 0.00 0.00 0.00 88 1009.4
20260507145534 13 353 4.8 11.3 0.00 0.00 0.00 88 1009.4
20260507145033 13 16 6.4 17.7 0.00 0.00 0.00 88 1009.1
20260507145023 13 0 6.4 17.7 0.00 0.00 0.00 88 929.8
20260507145013 13 0 6.4 17.7 0.00 0.00 0.00 88 929.6
20260507144821 13 344 6.4 16.1 0.00 0.00 0.00 88 1009.2
20260507144702 13 0 6.4 17.7 0.00 0.00 0.00 88 1009.3
20260507144658 13 355 6.4 17.7 0.00 0.00 0.00 88 1009.3
20260507144515 13 0 6.4 17.7 0.00 0.00 0.00 88 929.8
20260507144220 13 345 6.4 16.1 0.00 0.00 0.00 88 1009.2
20260507144017 13 358 6.4 8.0 0.00 0.00 0.00 88 929.7
20260507143859 13 0 6.4 14.5 0.00 0.00 0.00 87 1009.4
20260507143851 13 0 6.4 14.5 0.00 0.00 0.00 87 1009.5
20260507143642 13 23 3.2 11.3 0.00 0.00 0.00 88 1009.4
20260507143630 13 30 3.2 11.3 0.00 0.00 0.00 88 1009.4
20260507143518 13 10 3.2 9.7 0.00 0.00 0.00 88 929.9
20260507143450 13 0 6.4 11.3 0.00 0.00 0.00 88 1009.4
20260507143025 13 358 6.4 9.7 0.00 0.00 0.00 87 930.0
20260507143014 13 16 4.8 9.7 0.00 0.00 0.00 88 929.9
20260507142514 13 358 6.4 9.7 0.00 0.00 0.00 87 930.0
20260507142032 13 344 6.4 14.5 0.00 0.00 0.00 87 1009.7
20260507142013 13 10 6.4 9.7 0.00 0.00 0.00 87 930.2
20260507141533 13 0 4.8 9.7 0.00 0.00 0.00 87 1009.8
20260507141516 13 0 3.2 8.0 0.00 0.00 0.00 87 930.3
20260507141235 13 357 6.4 8.0 0.00 0.00 0.00 87 930.0
20260507141118 13 357 6.4 8.0 0.00 0.00 0.00 87 930.0
20260507141032 13 316 6.4 9.7 0.00 0.00 0.00 87 1009.6
20260507140537 13 31 0.0 8.0 0.00 0.00 0.00 86 1009.9
20260507140532 13 0 0.0 8.0 0.00 0.00 0.00 86 1009.9
20260507140514 13 343 0.0 4.8 0.00 0.00 0.00 86 930.2
20260507140344 13 14 1.6 8.0 0.00 0.00 0.00 86 1009.9
20260507140030 13 14 1.6 8.0 0.00 0.00 0.00 86 1009.9
20260507140014 13 344 1.6 4.8 0.00 0.00 0.00 86 930.3
20260507140007 13 42 0.0 16.1 0.00 0.00 0.00 86 930.4
20260507135538 13 0 0.0 16.1 0.00 0.00 0.00 86 1010.0
20260507135533 13 13 0.0 16.1 0.00 0.00 0.00 86 1010.0
20260507135513 13 42 0.0 16.1 0.00 0.00 0.00 86 930.4
20260507135032 13 13 1.6 16.1 0.00 0.00 0.00 85 1010.1
20260507135013 13 348 3.2 16.1 0.00 0.00 0.00 85 930.5
20260507134531 13 0 3.2 8.0 0.00 0.00 0.00 85 1010.1
20260507134514 13 340 3.2 6.4 0.00 0.00 0.00 85 930.5
20260507134037 13 17 0.0 11.3 0.00 0.00 0.00 85 1010.3
20260507134012 13 17 0.0 9.7 0.00 0.00 0.00 85 930.8
20260507133538 13 338 0.0 11.3 0.00 0.00 0.00 85 1010.1
20260507133534 13 336 0.0 11.3 0.00 0.00 0.00 85 1010.1
20260507133512 13 20 0.0 9.7 0.00 0.00 0.00 85 930.5
20260507133347 13 31 4.8 11.3 0.00 0.00 0.00 84 1010.0
20260507133240 13 17 4.8 11.3 0.00 0.00 0.00 84 1010.0
20260507133012 13 0 4.8 8.0 0.00 0.00 0.00 84 930.4
20260507132530 13 344 0.0 11.3 0.00 0.00 0.00 84 1009.9
20260507132514 13 357 0.0 6.4 0.00 0.00 0.00 84 930.4
20260507132357 13 0 0.0 8.0 0.00 0.00 0.00 84 1010.3
20260507132118 13 0 0.0 8.0 0.00 0.00 0.00 84 930.5
20260507132031 13 0 0.0 8.0 0.00 0.00 0.00 84 1010.3
20260507131737 14 0 0.0 8.0 0.00 0.00 0.00 83 930.8
20260507131533 14 348 0.0 8.0 0.00 0.00 0.00 83 1010.4
20260507131513 14 0 0.0 8.0 0.00 0.00 0.00 83 930.8
20260507131030 14 32 0.0 8.0 0.00 0.00 0.00 83 1010.6
20260507131011 14 20 0.0 6.4 0.00 0.00 0.00 83 930.8
20260507130531 14 350 1.6 9.7 0.00 0.00 0.00 82 1010.6
20260507130513 14 1 1.6 8.0 0.00 0.00 0.00 82 930.9
20260507130034 15 1 0.0 14.5 0.00 0.00 0.00 82 1010.9
20260507130030 15 0 0.0 14.5 0.00 0.00 0.00 82 1010.9
20260507130011 15 37 1.6 14.5 0.00 0.00 0.00 81 931.3
20260507125551 15 0 1.6 14.5 0.00 0.00 0.00 80 1010.9
20260507125532 15 17 1.6 14.5 0.00 0.00 0.00 80 1010.9
20260507125512 15 17 0.0 14.5 0.00 0.00 0.00 80 931.3
20260507125034 15 345 4.8 11.3 0.00 0.00 0.00 80 1011.0
20260507125028 15 345 4.8 11.3 0.00 0.00 0.00 81 1011.0
20260507125012 15 18 1.6 11.3 0.00 0.00 0.00 81 931.3
20260507124740 15 0 4.8 11.3 0.00 0.00 0.00 81 931.4
20260507124532 15 11 4.8 14.5 0.00 0.00 0.00 81 1011.1
20260507124036 15 6 0.0 14.5 0.00 0.00 0.00 81 1011.0
20260507124029 15 0 1.6 14.5 0.00 0.00 0.00 81 1011.0
20260507124011 15 25 0.0 11.3 0.00 0.00 0.00 81 931.3
20260507123853 15 21 3.2 16.1 0.00 0.00 0.00 80 1010.9
20260507123753 15 14 4.8 11.3 0.00 0.00 0.00 80 931.3
20260507123742 15 0 3.2 16.1 0.00 0.00 0.00 80 1010.9
20260507123520 15 14 4.8 11.3 0.00 0.00 0.00 80 931.3
20260507123029 15 0 0.0 16.1 0.00 0.00 0.00 80 1011.0
20260507123011 15 23 0.0 8.0 0.00 0.00 0.00 80 931.2
20260507122733 15 6 0.0 9.7 0.00 0.00 0.00 79 931.2
20260507122617 15 6 0.0 9.7 0.00 0.00 0.00 79 931.2
20260507122536 15 331 8.0 16.1 0.00 0.00 0.00 80 1011.0
20260507122530 15 329 8.0 16.1 0.00 0.00 0.00 80 1011.0
20260507122343 15 18 6.4 11.3 0.00 0.00 0.00 79 1011.0
20260507122028 15 0 6.4 11.3 0.00 0.00 0.00 79 1011.0
20260507122010 15 331 4.8 9.7 0.00 0.00 0.00 79 931.4
20260507121534 15 16 3.2 8.0 0.00 0.00 0.00 79 1011.2
20260507121528 15 52 3.2 8.0 0.00 0.00 0.00 79 1011.2
20260507121511 15 333 3.2 6.4 0.00 0.00 0.00 79 931.6
20260507121033 15 348 1.6 11.3 0.00 0.00 0.00 78 1011.2
20260507121029 15 1 1.6 11.3 0.00 0.00 0.00 78 1011.2
20260507121008 15 6 0.0 8.0 0.00 0.00 0.00 78 931.6
20260507120535 15 353 1.6 11.3 0.00 0.00 0.00 77 1011.1
20260507120531 15 348 1.6 11.3 0.00 0.00 0.00 77 1011.1
20260507120511 15 340 3.2 8.0 0.00 0.00 0.00 77 931.4
20260507120119 16 17 0.0 16.1 0.00 0.00 0.00 76 1011.2
20260507120010 16 0 0.0 6.4 0.00 0.00 0.00 76 931.5
20260507115740 16 320 3.2 16.1 0.00 0.00 0.00 75 1011.2
20260507115510 16 350 1.6 11.3 0.00 0.00 0.00 75 931.7
20260507115339 16 23 3.2 16.1 0.00 0.00 0.00 74 1011.1
20260507115237 16 27 3.2 16.1 0.00 0.00 0.00 74 931.5
20260507115116 16 27 3.2 16.1 0.00 0.00 0.00 74 931.5
20260507115027 16 23 3.2 16.1 0.00 0.00 0.00 74 1011.1
20260507114529 16 0 0.0 17.7 0.00 0.00 0.00 73 1011.2
20260507114511 16 350 4.8 16.1 0.00 0.00 0.00 73 931.5
20260507114027 17 96 3.2 17.7 0.00 0.00 0.00 71 1011.2
20260507114010 17 0 3.2 14.5 0.00 0.00 0.00 71 931.4
20260507113528 17 45 0.0 9.7 0.00 0.00 0.00 71 1011.1
20260507113511 17 8 0.0 9.7 0.00 0.00 0.00 71 931.4
20260507113027 17 37 1.6 9.7 0.00 0.00 0.00 71 1011.1
20260507113010 17 344 4.8 9.7 0.00 0.00 0.00 71 931.5
20260507112845 17 0 3.2 9.7 0.00 0.00 0.00 70 1011.3
20260507112528 17 0 3.2 9.7 0.00 0.00 0.00 70 1011.3
20260507112523 17 0 0.0 6.4 0.00 0.00 0.00 70 931.6
20260507112028 17 44 4.8 14.5 0.00 0.00 0.00 70 1011.4
20260507112009 17 344 4.8 11.3 0.00 0.00 0.00 70 931.8
20260507111748 17 10 4.8 14.5 0.00 0.00 0.00 68 931.8
20260507111532 17 35 3.2 16.1 0.00 0.00 0.00 69 1011.4
20260507111522 17 10 4.8 14.5 0.00 0.00 0.00 68 931.8
20260507111026 17 11 3.2 16.1 0.00 0.00 0.00 66 1011.7
20260507111008 17 30 1.6 14.5 0.00 0.00 0.00 67 932.1
20260507110849 18 20 3.2 9.7 0.00 0.00 0.00 66 1011.7
20260507110738 18 20 3.2 9.7 0.00 0.00 0.00 66 1011.7
20260507110510 18 0 6.4 14.5 0.00 0.00 0.00 67 932.2
20260507110026 18 0 0.0 16.1 0.00 0.00 0.00 66 1011.9
20260507110010 18 313 0.0 16.1 0.00 0.00 0.00 64 932.2
20260507105849 18 18 6.4 16.1 0.00 0.00 0.00 65 1011.9
20260507105741 18 42 6.4 16.1 0.00 0.00 0.00 65 932.2
20260507105617 18 42 6.4 16.1 0.00 0.00 0.00 65 932.2
20260507105528 18 18 6.4 16.1 0.00 0.00 0.00 65 1011.9
20260507105027 19 323 4.8 17.7 0.00 0.00 0.00 65 1012.0
20260507105007 18 343 3.2 9.7 0.00 0.00 0.00 64 932.2
20260507104847 18 348 1.6 17.7 0.00 0.00 0.00 63 1011.9
20260507104528 18 348 1.6 17.7 0.00 0.00 0.00 63 1011.9
20260507104510 18 49 3.2 14.5 0.00 0.00 0.00 63 932.2
20260507104026 18 11 3.2 14.5 0.00 0.00 0.00 63 1012.1
20260507104009 18 45 4.8 14.5 0.00 0.00 0.00 63 932.2
20260507103528 18 23 1.6 11.3 0.00 0.00 0.00 63 1012.2
20260507103508 18 0 0.0 11.3 0.00 0.00 0.00 63 932.4
20260507103026 18 333 1.6 17.7 0.00 0.00 0.00 64 1012.1
20260507103008 18 0 1.6 16.1 0.00 0.00 0.00 64 932.4
20260507102900 18 44 6.4 17.7 0.00 0.00 0.00 62 1012.0
20260507102526 18 44 6.4 17.7 0.00 0.00 0.00 62 1012.0
20260507102509 18 1 6.4 16.1 0.00 0.00 0.00 62 932.3
20260507102025 18 338 4.8 14.5 0.00 0.00 0.00 62 1012.2
20260507102008 18 3 3.2 14.5 0.00 0.00 0.00 60 932.5
20260507101848 19 4 0.0 16.1 0.00 0.00 0.00 62 1012.0
20260507101614 19 47 1.6 14.5 0.00 0.00 0.00 59 932.2
20260507101527 19 4 0.0 16.1 0.00 0.00 0.00 62 1012.0
20260507101007 18 23 4.8 9.7 0.00 0.00 0.00 58 932.3
20260507101005 19 30 6.4 17.7 0.00 0.00 0.00 59 1012.0
20260507100509 18 48 4.8 17.7 0.00 0.00 0.00 59 1012.1
20260507100505 18 48 4.8 17.7 0.00 0.00 0.00 59 1012.1
20260507100230 18 20 3.2 14.5 0.00 0.00 0.00 57 932.4
20260507100118 18 20 3.2 14.5 0.00 0.00 0.00 57 932.4
20260507100004 18 344 6.4 14.5 0.00 0.00 0.00 60 1012.1
20260507095507 18 329 4.8 11.3 0.00 0.00 0.00 57 932.5
20260507095504 18 329 6.4 14.5 0.00 0.00 0.00 57 1012.3
20260507095007 18 0 6.4 11.3 0.00 0.00 0.00 54 932.5
20260507094508 18 31 3.2 11.3 0.00 0.00 0.00 53 932.6
20260507094504 18 345 3.2 9.7 0.00 0.00 0.00 53 1012.4
20260507094146 18 337 1.6 16.1 0.00 0.00 0.00 54 1012.5
20260507094100 18 1 1.6 14.5 0.00 0.00 0.00 53 1012.6
20260507094019 18 1 1.6 11.3 0.00 0.00 0.00 54 932.7
20260507093508 18 347 3.2 16.1 0.00 0.00 0.00 51 932.8
20260507093503 18 337 1.6 16.1 0.00 0.00 0.00 54 1012.5
20260507093007 18 345 4.8 16.1 0.00 0.00 0.00 56 932.7
20260507093004 18 347 6.4 16.1 0.00 0.00 0.00 56 1012.4
20260507092954 18 1 6.4 14.5 0.00 0.00 0.00 59 932.6
20260507092507 18 1 6.4 14.5 0.00 0.00 0.00 59 932.6
20260507092504 18 0 6.4 14.5 0.00 0.00 0.00 58 1012.4
20260507092400 19 353 4.8 14.5 0.00 0.00 0.00 58 1012.3
20260507092214 19 353 4.8 14.5 0.00 0.00 0.00 58 1012.3
20260507092018 19 353 8.0 11.3 0.00 0.00 0.00 55 932.4
20260507091507 18 306 3.2 14.5 0.00 0.00 0.00 57 932.5
20260507091504 18 0 6.4 19.3 0.00 0.00 0.00 59 1012.3
20260507091237 19 37 4.8 14.5 0.00 0.00 0.00 54 932.6
20260507091007 19 37 4.8 14.5 0.00 0.00 0.00 54 932.6
20260507090941 19 0 6.4 19.3 0.00 0.00 0.00 58 1012.4
20260507090753 19 0 0.0 16.1 0.00 0.00 0.00 52 1012.5
20260507090521 19 0 0.0 9.7 0.00 0.00 0.00 53 932.7
20260507090432 19 0 0.0 16.1 0.00 0.00 0.00 52 1012.5
20260507090007 18 351 0.0 8.0 0.00 0.00 0.00 49 932.6
20260507085932 18 0 1.6 14.5 0.00 0.00 0.00 48 1012.4
20260507085729 18 0 3.2 8.0 0.00 0.00 0.00 51 932.4
20260507085614 18 0 3.2 8.0 0.00 0.00 0.00 51 932.4
20260507085432 18 0 3.2 14.5 0.00 0.00 0.00 50 1012.2
20260507085318 18 34 4.8 9.7 0.00 0.00 0.00 46 1012.3
20260507085140 18 34 4.8 9.7 0.00 0.00 0.00 46 1012.3
20260507085006 18 0 3.2 9.7 0.00 0.00 0.00 47 932.5
20260507084506 19 310 3.2 11.3 0.00 0.00 0.00 45 932.2
20260507084432 19 28 3.2 14.5 0.00 0.00 0.00 45 1012.0
20260507084337 18 351 0.0 11.3 0.00 0.00 0.00 49 932.2
20260507084249 18 351 0.0 11.3 0.00 0.00 0.00 49 932.2
20260507084102 18 7 0.0 14.5 0.00 0.00 0.00 48 1012.3
20260507084029 18 341 0.0 14.5 0.00 0.00 0.00 48 1012.0
20260507083506 18 0 0.0 14.5 0.00 0.00 0.00 48 932.4
20260507083004 18 10 3.2 14.5 0.00 0.00 0.00 52 932.4
20260507082932 18 0 3.2 14.5 0.00 0.00 0.00 52 1012.1
20260507082755 17 341 0.0 8.0 0.00 0.00 0.00 54 1012.0
20260507082640 17 341 0.0 8.0 0.00 0.00 0.00 54 1012.0
20260507082519 17 8 1.6 8.0 0.00 0.00 0.00 54 932.2
20260507082227 17 1 1.6 11.3 0.00 0.00 0.00 55 1012.1
20260507082005 17 338 0.0 8.0 0.00 0.00 0.00 56 932.3
20260507081957 17 3 1.6 8.0 0.00 0.00 0.00 58 932.3
20260507081933 17 1 1.6 11.3 0.00 0.00 0.00 55 1012.1
20260507081742 17 0 1.6 11.3 0.00 0.00 0.00 60 1012.1
20260507081506 17 3 1.6 8.0 0.00 0.00 0.00 58 932.3
20260507081428 17 0 1.6 11.3 0.00 0.00 0.00 60 1012.1
20260507081237 17 0 4.8 9.7 0.00 0.00 0.00 56 1012.1
20260507081234 17 0 3.2 8.0 0.00 0.00 0.00 57 932.3
20260507081110 17 0 3.2 8.0 0.00 0.00 0.00 57 932.3
20260507080927 17 0 4.8 9.7 0.00 0.00 0.00 56 1012.1
20260507080510 17 16 1.6 11.3 0.00 0.00 0.00 56 932.4
20260507080440 17 0 1.6 11.3 0.00 0.00 0.00 55 1012.0
20260507080005 17 11 4.8 11.3 0.00 0.00 0.00 57 932.3
20260507075929 17 353 4.8 14.5 0.00 0.00 0.00 57 1012.1
20260507075733 17 20 4.8 11.3 0.00 0.00 0.00 58 932.3
20260507075611 17 20 4.8 11.3 0.00 0.00 0.00 58 932.3
20260507075425 17 0 6.4 14.5 0.00 0.00 0.00 57 1012.1
20260507075258 18 340 0.0 11.3 0.00 0.00 0.00 55 1012.1
20260507075134 18 340 0.0 11.3 0.00 0.00 0.00 55 1012.1
20260507075005 18 17 0.0 8.0 0.00 0.00 0.00 55 932.4
20260507074506 17 25 3.2 19.3 0.00 0.00 0.00 58 932.4
20260507074424 17 0 4.8 19.3 0.00 0.00 0.00 59 1012.1
20260507074005 17 6 3.2 19.3 0.00 0.00 0.00 57 932.5
20260507073923 17 0 3.2 19.3 0.00 0.00 0.00 55 1012.1
20260507073505 17 357 4.8 9.7 0.00 0.00 0.00 59 932.2
20260507073423 17 357 6.4 14.5 0.00 0.00 0.00 60 1011.9
20260507073230 17 0 0.0 4.8 0.00 0.00 0.00 58 932.5
20260507073110 17 0 0.0 4.8 0.00 0.00 0.00 58 932.5
20260507072924 17 0 0.0 8.0 0.00 0.00 0.00 57 1012.2
20260507072505 17 44 0.0 8.0 0.00 0.00 0.00 60 932.7
20260507072422 17 338 0.0 8.0 0.00 0.00 0.00 59 1012.2
20260507072029 17 0 4.8 9.7 0.00 0.00 0.00 63 932.6
20260507072017 17 347 0.0 9.7 0.00 0.00 0.00 61 932.4
20260507071924 17 357 3.2 9.7 0.00 0.00 0.00 61 1012.2
20260507071504 17 0 4.8 9.7 0.00 0.00 0.00 63 932.6
20260507071430 17 0 3.2 11.3 0.00 0.00 0.00 64 1012.4
20260507071425 17 17 3.2 11.3 0.00 0.00 0.00 64 1012.3
20260507071002 17 0 6.4 9.7 0.00 0.00 0.00 63 932.5
20260507070924 17 23 6.4 14.5 0.00 0.00 0.00 62 1012.2
20260507070808 17 4 0.0 14.5 0.00 0.00 0.00 59 1012.4
20260507070506 17 3 0.0 8.0 0.00 0.00 0.00 61 932.7
20260507070423 17 4 0.0 14.5 0.00 0.00 0.00 59 1012.4
20260507070009 17 337 1.6 9.7 0.00 0.00 0.00 64 932.6
20260507065923 17 337 1.6 9.7 0.00 0.00 0.00 57 1012.3
20260507065731 17 0 4.8 9.7 0.00 0.00 0.00 58 932.6
20260507065505 17 0 4.8 9.7 0.00 0.00 0.00 58 932.6
20260507065423 17 345 3.2 9.7 0.00 0.00 0.00 58 1012.3
20260507065300 16 11 1.6 6.4 0.00 0.00 0.00 62 1012.4
20260507065229 16 21 0.0 6.4 0.00 0.00 0.00 62 932.7
20260507065130 16 11 1.6 6.4 0.00 0.00 0.00 62 1012.4
20260507065003 16 21 0.0 6.4 0.00 0.00 0.00 62 932.7
20260507064505 16 343 0.0 8.0 0.00 0.00 0.00 61 932.7
20260507064422 16 44 0.0 8.0 0.00 0.00 0.00 62 1012.3
20260507064006 16 343 3.2 8.0 0.00 0.00 0.00 62 932.6
20260507063923 16 344 0.0 8.0 0.00 0.00 0.00 63 1012.3
20260507063504 16 41 1.6 4.8 0.00 0.00 0.00 55 932.4
20260507063426 16 0 1.6 8.0 0.00 0.00 0.00 57 1012.2
20260507063345 16 357 0.0 1.6 0.00 0.00 0.00 57 932.4
20260507062923 16 10 0.0 8.0 0.00 0.00 0.00 58 1012.2
20260507062506 15 357 0.0 6.4 0.00 0.00 0.00 62 932.4
20260507062423 15 0 0.0 6.4 0.00 0.00 0.00 62 1012.1
20260507062004 15 54 1.6 6.4 0.00 0.00 0.00 66 932.5
20260507061923 15 0 1.6 8.0 0.00 0.00 0.00 65 1012.2
20260507061505 15 337 0.0 6.4 0.00 0.00 0.00 68 932.5
20260507061422 15 333 0.0 8.0 0.00 0.00 0.00 68 1012.1
20260507061230 15 13 4.8 6.4 0.00 0.00 0.00 67 932.6
20260507061112 15 13 4.8 6.4 0.00 0.00 0.00 67 932.6
20260507060921 15 0 3.2 8.0 0.00 0.00 0.00 68 1012.3
20260507060504 15 11 0.0 0.0 0.00 0.00 0.00 68 932.6
20260507060423 15 10 0.0 0.0 0.00 0.00 0.00 69 1012.4
20260507060002 14 0 0.0 0.0 0.00 0.00 0.00 69 932.6
20260507055930 14 1 0.0 0.0 0.00 0.00 0.00 68 1012.2
20260507055828 14 0 0.0 0.0 0.00 0.00 0.00 67 1012.4
20260507055726 14 0 0.0 0.0 0.00 0.00 0.00 67 932.7
20260507055610 14 0 0.0 0.0 0.00 0.00 0.00 67 932.7
20260507055421 14 0 0.0 0.0 0.00 0.00 0.00 67 1012.4
20260507055002 14 47 0.0 0.0 0.00 0.00 0.00 66 932.6
20260507054928 14 354 0.0 0.0 0.00 0.00 0.00 67 1012.3
20260507054504 14 0 0.0 0.0 0.00 0.00 0.00 71 932.7
20260507054422 14 0 0.0 0.0 0.00 0.00 0.00 71 1012.3
20260507054000 15 3 0.0 0.0 0.00 0.00 0.00 62 932.8
20260507053922 15 17 0.0 0.0 0.00 0.00 0.00 68 1012.5
20260507053503 15 27 0.0 0.0 0.00 0.00 0.00 59 932.7
20260507053420 15 24 0.0 0.0 0.00 0.00 0.00 60 1012.4
20260507053002 15 20 0.0 0.0 0.00 0.00 0.00 59 932.7
20260507052922 15 20 0.0 0.0 0.00 0.00 0.00 59 1012.4
20260507052857 14 18 0.0 0.0 0.00 0.00 0.00 51 1012.5
20260507052531 14 18 0.0 0.0 0.00 0.00 0.00 51 1012.5
20260507052502 15 21 0.0 0.0 0.00 0.00 0.00 50 932.6
20260507052453 15 21 0.0 0.0 0.00 0.00 0.00 49 1012.4
20260507052000 14 18 0.0 0.0 0.00 0.00 0.00 51 932.6
20260507051516 14 20 0.0 0.0 0.00 0.00 0.00 51 932.6
20260507051439 14 20 0.0 0.0 0.00 0.00 0.00 50 1012.4
20260507051253 14 21 0.0 1.6 0.00 0.00 0.00 51 1012.3
20260507051222 14 20 0.0 0.0 0.00 0.00 0.00 51 932.6
20260507051110 14 20 0.0 0.0 0.00 0.00 0.00 51 932.6
20260507050934 14 21 0.0 1.6 0.00 0.00 0.00 51 1012.3
20260507050841 14 16 0.0 1.6 0.00 0.00 0.00 50 1012.2
20260507050639 14 16 0.0 1.6 0.00 0.00 0.00 50 1012.2
20260507050502 14 16 0.0 0.0 0.00 0.00 0.00 49 932.6
20260507045959 14 11 0.0 0.0 0.00 0.00 0.00 54 932.4
20260507045921 14 11 0.0 0.0 0.00 0.00 0.00 56 1012.2
20260507045731 14 11 0.0 0.0 0.00 0.00 0.00 47 932.5
20260507045503 14 11 0.0 0.0 0.00 0.00 0.00 47 932.5
20260507045422 14 11 0.0 0.0 0.00 0.00 0.00 48 1012.3
20260507045418 14 11 0.0 0.0 0.00 0.00 0.00 48 1012.2
20260507045224 13 11 0.0 0.0 0.00 0.00 0.00 48 932.5
20260507045001 13 11 0.0 0.0 0.00 0.00 0.00 48 932.5
20260507044918 13 11 0.0 0.0 0.00 0.00 0.00 47 1012.3
20260507044908 14 11 0.0 0.0 0.00 0.00 0.00 47 1012.2
20260507044725 13 11 0.0 0.0 0.00 0.00 0.00 48 932.5
20260507044607 13 11 0.0 0.0 0.00 0.00 0.00 48 932.5
20260507044411 13 11 0.0 0.0 0.00 0.00 0.00 48 1012.2
20260507044001 13 6 0.0 1.6 0.00 0.00 0.00 48 932.5
20260507043919 13 6 0.0 3.2 0.00 0.00 0.00 48 1012.3
20260507043908 13 7 0.0 3.2 0.00 0.00 0.00 48 1012.2
20260507043507 13 7 0.0 1.6 0.00 0.00 0.00 47 932.6
20260507043407 13 7 0.0 3.2 0.00 0.00 0.00 49 1012.3
20260507043000 13 7 0.0 1.6 0.00 0.00 0.00 47 932.6
20260507042909 13 7 0.0 1.6 0.00 0.00 0.00 47 1012.3
20260507042501 13 7 0.0 0.0 0.00 0.00 0.00 46 932.6
20260507042406 13 7 0.0 0.0 0.00 0.00 0.00 46 1012.3
20260507041959 13 7 0.0 0.0 0.00 0.00 0.00 47 932.6
20260507041917 13 7 0.0 0.0 0.00 0.00 0.00 47 1012.4
20260507041907 13 7 0.0 0.0 0.00 0.00 0.00 47 1012.4
20260507041730 13 7 0.0 0.0 0.00 0.00 0.00 47 1012.4
20260507041502 13 7 0.0 0.0 0.00 0.00 0.00 47 932.7
20260507041410 13 7 0.0 0.0 0.00 0.00 0.00 47 1012.5
20260507041000 13 7 0.0 0.0 0.00 0.00 0.00 47 932.7
20260507040905 13 7 0.0 0.0 0.00 0.00 0.00 47 1012.4
20260507040755 13 7 0.0 0.0 0.00 0.00 0.00 46 1012.5
20260507040627 13 7 0.0 0.0 0.00 0.00 0.00 46 1012.5
20260507040501 13 7 0.0 0.0 0.00 0.00 0.00 46 932.8
20260507035959 13 7 0.0 0.0 0.00 0.00 0.00 45 932.8
20260507035905 13 7 0.0 0.0 0.00 0.00 0.00 46 1012.6
20260507035750 13 7 0.0 0.0 0.00 0.00 0.00 45 1012.7
20260507035721 13 7 0.0 0.0 0.00 0.00 0.00 45 933.0
20260507035612 13 7 0.0 0.0 0.00 0.00 0.00 45 933.0
20260507035403 13 7 0.0 0.0 0.00 0.00 0.00 46 1012.6
20260507035000 13 7 0.0 0.0 0.00 0.00 0.00 45 932.9
20260507034917 13 7 0.0 0.0 0.00 0.00 0.00 47 1012.6
20260507034907 13 7 0.0 0.0 0.00 0.00 0.00 47 1012.7
20260507034501 14 7 0.0 0.0 0.00 0.00 0.00 45 933.1
20260507034417 13 7 0.0 0.0 0.00 0.00 0.00 46 1012.8
20260507034402 14 7 0.0 0.0 0.00 0.00 0.00 46 1012.8
20260507034258 14 7 0.0 0.0 0.00 0.00 0.00 45 1012.9
20260507034248 14 7 0.0 0.0 0.00 0.00 0.00 45 1012.8
20260507034244 14 7 0.0 0.0 0.00 0.00 0.00 45 1013.0
20260507033959 14 7 0.0 0.0 0.00 0.00 0.00 45 933.1
20260507033915 14 7 0.0 0.0 0.00 0.00 0.00 45 1013.1
20260507033907 14 7 0.0 0.0 0.00 0.00 0.00 45 1012.9
20260507033723 14 7 0.0 0.0 0.00 0.00 0.00 45 1013.0
20260507033501 14 7 0.0 0.0 0.00 0.00 0.00 45 933.1
20260507033221 14 7 0.0 0.0 0.00 0.00 0.00 45 933.2
20260507033104 14 7 0.0 0.0 0.00 0.00 0.00 45 933.2
20260507032501 14 7 0.0 0.0 0.00 0.00 0.00 45 933.2
20260507032440 14 7 0.0 0.0 0.00 0.00 0.00 44 1012.8
20260507032420 14 7 0.0 0.0 0.00 0.00 0.00 45 1013.0
20260507032228 14 7 0.0 0.0 0.00 0.00 0.00 44 933.0
20260507032038 14 7 0.0 0.0 0.00 0.00 0.00 44 1012.9
20260507031958 14 7 0.0 0.0 0.00 0.00 0.00 44 933.0
20260507031723 14 7 0.0 0.0 0.00 0.00 0.00 44 933.1
20260507031615 14 7 0.0 0.0 0.00 0.00 0.00 45 1012.9
20260507031612 14 7 0.0 0.0 0.00 0.00 0.00 44 933.1
20260507031004 14 7 0.0 0.0 0.00 0.00 0.00 44 933.2
20260507030917 14 7 0.0 0.0 0.00 0.00 0.00 44 1013.0
20260507030903 14 7 0.0 0.0 0.00 0.00 0.00 44 1012.9
20260507030505 14 7 0.0 0.0 0.00 0.00 0.00 44 933.2
20260507030404 14 7 0.0 0.0 0.00 0.00 0.00 44 1012.9
20260507030001 -17 7 0.0 0.0 0.00 0.00 0.00 933.1
20260507025904 15 7 0.0 0.0 0.00 0.00 0.00 44 1013.0
20260507025718 15 7 0.0 0.0 0.00 0.00 0.00 42 933.2
20260507025605 15 7 0.0 0.0 0.00 0.00 0.00 42 933.2
20260507025419 15 7 0.0 0.0 0.00 0.00 0.00 44 1013.0
20260507025410 15 7 0.0 0.0 0.00 0.00 0.00 44 1012.9
20260507024958 15 7 0.0 0.0 0.00 0.00 0.00 42 933.1
20260507024916 15 7 0.0 0.0 0.00 0.00 0.00 43 1012.8
20260507024902 15 7 0.0 0.0 0.00 0.00 0.00 43 1012.8
20260507024458 15 7 0.0 0.0 0.00 0.00 0.00 42 932.9
20260507024417 15 7 0.0 0.0 0.00 0.00 0.00 42 1012.6
20260507024406 15 7 0.0 0.0 0.00 0.00 0.00 42 1012.6
20260507024401 15 7 0.0 0.0 0.00 0.00 0.00 42 1012.5
20260507024352 15 7 0.0 0.0 0.00 0.00 0.00 43 1012.5
20260507024223 15 7 0.0 0.0 0.00 0.00 0.00 43 1012.4
20260507023959 15 7 0.0 0.0 0.00 0.00 0.00 42 932.7
20260507023729 15 7 0.0 0.0 0.00 0.00 0.00 42 932.8
20260507023610 15 7 0.0 0.0 0.00 0.00 0.00 42 932.8
20260507022958 15 7 0.0 0.0 0.00 0.00 0.00 41 932.8
20260507022928 15 7 0.0 0.0 0.00 0.00 0.00 42 1012.6
20260507022905 15 6 0.0 0.0 0.00 0.00 0.00 42 1012.6
20260507022517 15 7 0.0 0.0 0.00 0.00 0.00 40 1012.5
20260507022506 15 7 0.0 0.0 0.00 0.00 0.00 40 1012.5
20260507022459 15 7 0.0 0.0 0.00 0.00 0.00 40 932.8
20260507022112 15 7 0.0 6.4 0.00 0.00 0.00 40 1012.4
20260507022015 15 7 0.0 4.8 0.00 0.00 0.00 40 932.6
20260507021458 15 1 0.0 4.8 0.00 0.00 0.00 40 932.5
20260507021416 15 1 0.0 9.7 0.00 0.00 0.00 40 1012.4
20260507021355 15 0 0.0 9.7 0.00 0.00 0.00 40 1012.3
20260507020957 15 1 0.0 4.8 0.00 0.00 0.00 40 932.6
20260507020915 15 1 1.6 9.7 0.00 0.00 0.00 40 1012.3
20260507020853 15 1 1.6 9.7 0.00 0.00 0.00 40 1012.4
20260507020459 15 354 0.0 1.6 0.00 0.00 0.00 39 932.6
20260507020414 15 354 0.0 3.2 0.00 0.00 0.00 40 1012.3
20260507020351 15 354 0.0 6.4 0.00 0.00 0.00 40 1012.3
20260507020217 15 354 0.0 4.8 0.00 0.00 0.00 39 932.6
20260507015916 15 354 0.0 9.7 0.00 0.00 0.00 39 1012.4
20260507015854 15 354 0.0 9.7 0.00 0.00 0.00 39 1012.5
20260507015459 15 354 1.6 4.8 0.00 0.00 0.00 40 932.4
20260507015415 15 354 1.6 9.7 0.00 0.00 0.00 39 1012.2
20260507015353 15 338 0.0 1.6 0.00 0.00 0.00 39 1012.2
20260507014957 15 329 0.0 0.0 0.00 0.00 0.00 40 932.5
20260507014915 15 329 0.0 0.0 0.00 0.00 0.00 40 1012.3
20260507014848 15 329 0.0 0.0 0.00 0.00 0.00 40 1012.4
20260507014755 15 327 0.0 0.0 0.00 0.00 0.00 41 1012.4
20260507014457 15 327 0.0 0.0 0.00 0.00 0.00 41 932.6
20260507014349 15 327 0.0 0.0 0.00 0.00 0.00 41 1012.4
20260507014228 15 327 0.0 0.0 0.00 0.00 0.00 41 932.7
20260507013957 15 327 0.0 0.0 0.00 0.00 0.00 41 932.7
20260507013914 15 327 0.0 0.0 0.00 0.00 0.00 42 1012.5
20260507013844 15 326 0.0 0.0 0.00 0.00 0.00 41 1012.6
20260507013458 15 327 0.0 1.6 0.00 0.00 0.00 41 932.9
20260507013414 15 327 0.0 1.6 0.00 0.00 0.00 41 1012.6